Liberia, Costa Rica

2:16 AM CST on February 25, 2017 (GMT -0600)
Daniel Oduber Quiros International

Weather History for MRLB - December, 2013

Change the Weather History Date:

Saturday, December 21, 2013

  Actual Average Record
Temperature  
Mean Temperature 81 °F -  
Max Temperature 92 °F 88 °F 92 °F (2013)
Min Temperature 70 °F 73 °F 62 °F (2008)
Cooling Degree Days 16    
Growing Degree Days 31 (Base 50)    
Moisture  
Dew Point 66 °F    
Average Humidity 52    
Maximum Humidity 78    
Minimum Humidity 36    
Precipitation  
Precipitation 0.00 in - - ()
Sea Level Pressure  
Sea Level Pressure 29.80 in    
Wind  
Wind Speed 10 mph ()    
Max Wind Speed 17 mph    
Max Gust Speed 29 mph    
Visibility 8.6 miles    
Events      
Averages and records for this station are not official NWS values.
T = Trace of Precipitation, MM = Missing Value Source: Averaged Metar Reports

Daily Weather History Graph

Daily Weather History Graph

Search for Another Location

Airport or City:

Trip Planner

Search our weather history database for the weather conditions in past years. The results will help you decide how hot, cold, wet, or windy it might be!

Date:

Astronomy

Dec. 21, 2013 Rise Set
Actual Time 5:55 AM CST 5:25 PM CST
Civil Twilight 5:32 AM CST 5:48 PM CST
Nautical Twilight 5:05 AM CST 6:15 PM CST
Astronomical Twilight 4:39 AM CST 6:41 PM CST
Moon 9:02 PM CST (12/21) 8:55 AM CST (12/21)
Length of Visible Light 12h 16m
Length of Day
11h 30m
Waning Gibbous, 84% of the Moon is Illuminated
Dec 21
Waning Gibbous
Dec 25
Last Quarter
Jan 1
New
Jan 7
First Quarter
Jan 15
Full

Hourly Weather History & Observations

Time (CST) Temp. Heat Index Dew Point Humidity Pressure Visibility Wind Dir Wind Speed Gust Speed Precip Events Conditions
6:00 AM 74 °F - 65 °F 68% 29.84 in 12 mi East 4.6 mph - -   Scattered Clouds
6:00 AM 73.4 °F - 66.2 °F 78% 29.81 in - East 4.6 mph - N/A   Clear
7:00 AM 78.8 °F - 66.2 °F 65% 29.81 in - ENE 9.2 mph - N/A   Clear
8:00 AM 82.4 °F 83.9 °F 64.4 °F 54% 29.81 in - ENE 13.8 mph 25.3 mph N/A   Clear
9:00 AM 86 °F - 65 °F 40% 29.86 in 12 mi East 15.0 mph - -  
9:00 AM 86.0 °F 87.3 °F 64.4 °F 48% 29.82 in - East 15.0 mph - N/A   Clear
10:00 AM 87.8 °F 90.4 °F 66.2 °F 49% 29.82 in - East 17.3 mph - N/A   Clear
11:00 AM 87.8 °F 90.4 °F 66.2 °F 49% 29.80 in - East 17.3 mph 28.8 mph N/A   Clear
12:00 PM 90 °F - 67 °F 36% 29.82 in 12 mi ENE 17.3 mph - -   Scattered Clouds
12:00 PM 89.6 °F 92.2 °F 66.2 °F 46% 29.79 in 6.2 mi ENE 17.3 mph 28.8 mph N/A   Partly Cloudy
1:00 PM 89.6 °F 92.2 °F 66.2 °F 46% 29.77 in 6.2 mi ENE 16.1 mph - N/A   Scattered Clouds
2:00 PM 89.6 °F 92.2 °F 66.2 °F 46% 29.75 in 6.2 mi East 12.7 mph - N/A   Partly Cloudy
3:00 PM 88 °F - 65 °F 37% 29.78 in 12 mi East 15.0 mph - -   Scattered Clouds
3:00 PM 87.8 °F 90.4 °F 66.2 °F 49% 29.75 in 6.2 mi East 15.0 mph - N/A   Scattered Clouds
4:00 PM 86.0 °F 88.2 °F 66.2 °F 51% 29.76 in 6.2 mi East 13.8 mph - N/A   Scattered Clouds
5:00 PM 86.0 °F 88.2 °F 66.2 °F 51% 29.76 in 6.2 mi ENE 9.2 mph - N/A   Scattered Clouds
6:00 PM 82 °F - 67 °F 51% 29.82 in 12 mi East 8.1 mph - -   Partly Cloudy
6:00 PM 82.4 °F 84.6 °F 66.2 °F 58% 29.79 in 6.2 mi East 8.1 mph - N/A   Scattered Clouds
7:00 PM 80.6 °F 82.7 °F 66.2 °F 61% 29.80 in - East 9.2 mph - N/A   Clear
8:00 PM 78.8 °F - 66.2 °F 65% 29.82 in - East 8.1 mph - N/A   Clear